STARLINK-11334, 61250

Orbit data source: Space-Track

STARLINK-11334, 61250 is a payload satellite owned by SpaceX/Seattle (US) in LEO that was launched on Wed, 25 Sep 2024 UTC via an FALCON 9 launch vehicle from the Air Force Western Test Range (AFWTR). Payloads include a variety of satellites, spacecraft, and rockets equipped with specific instruments for various scientific and technological missions. These include communications satellites like Starlink; space stations such as the ISS; scientific satellites like the Hubble; Earth observation satellites from companies like Planet Labs, Umbra, and HawkEye 360; GPS; miniature CubeSats for education and research; and military/defense satellites.

Loading next visibility...
STARLINK-11334 details
Identifier
61250, 2024-175H
Orbit
LEO
Last TLE update23 hours ago
Origin
Flag of USSpaceX/Seattle (US)
ManufacturerSpaceX/Seattle
MissionOperational spacecraft
Bus & MotorSTARLINK V2M, Unknown motor
Mass730 kg wet, ~700 kg dry
Launch date (UTC)
2024-09-25 (3 months ago)
Launch vehicle
FALCON 9
Launch site
Air Force Western Test Range (AFWTR)
Object type
Payload
Rocket body
Debris
Shape & HBRUnknown
Radar Cross SectionLarge (>1 m²)

Expand to show TLE details & history

TLE from 23 hours ago
0 STARLINK-11334
1 61250U 24175H   24355.54577195  .00002277  00000-0  23634-4 0  9995
2 61250  53.1578  85.3954 0000633  49.3243 310.7830 15.69719315 14505
Epoch: 2024-12-20T13:05Z
Definitive object data (Epoch: 2024-12-20T13:05:54.696Z)
Latitude-0.00001°
Longitude159.30776°
Altitude360.336 km
Speed7.694 km/s
True Right ascension05h 41m 34s
True Declination0° 00' 00"
Sunlit
Object was in full shadow at TLE epoch
Visualization TLE readout
Latitude-17.11612°
Longitude141.35308°
Altitude364.228 km
Speed7.691 km/s
Apparent Right ascension02h 11m 08s
Apparent Declination-35° 14' 44"
Sunlit
Object is in full shadow
Visualization observer readout
Local Sidereal Time10:57:24
Azimuth261.17° W
Elevation-51.803°
Doppler factor1
Orbital elements
Apogee altitude360.388 km
Perigee altitude359.535 km
Semi-major axis6,738.098 km
Eccentricity0.0000633
Inclination53.1578°
RAAN85.3954°
Arg. of periapsis49.3243°
True anomaly310.77751°
Mean anomaly310.783°
Eccentric anomaly310.78025°
Mean motion3.92407 °/min
BSTAR0.000023634
Orbital period91.74 mins
Loading maneuver chart data...
Loading historical data...
Loading historical data...
Loading historical data...
Loading historical data...
Loading historical data...
Loading historical data...
Loading historical data...

STARLINK-11334 Visibility forecast

Observer location: undefined°, undefined

Span
Click to sort rows by Start time (UTC) header in descending order
Start Az.
Max El. time (UTC)
Max El. Az.
Max El.
End time (UTC)
End Az.
4 mins2024-12-21 15:34:41.481Z315.017° NNW2024-12-21 15:36:41.481Z76.516° E43.78°2024-12-21 15:38:41.481Z124.725° SE
|